Simultaneous Nadir Overpasses (SNOs) Predictions

Prediction of SNOs between METOP-A and TERRA Satellite Orbit:

Table of predicted SNOs for the next 14.0 days since TLE Epoch: 11/23/2019
Index Date (METOP-A) Time (METOP-A) Lat,Lon (METOP-A) SZA (METOP-A ) Date (TERRA) Time (TERRA) Lat,Lon (TERRA) SZA (TERRA ) Distance(km) Time Diff (sec)
1 11/23/2019 04:23:25 -81.44, -16.05 75.02 11/23/2019 04:24:21 -81.45, -15.96 74.98 1.63 56
2 11/23/2019 05:14:06 81.44, 151.31 105.00 11/23/2019 05:13:48 81.43, 151.41 104.99 2.01 18
3 11/25/2019 23:57:49 -81.45, 50.13 74.50 11/25/2019 23:58:38 -81.44, 50.30 74.47 3.03 49
4 11/26/2019 00:48:29 81.44,-142.14 105.55 11/26/2019 00:48:04 81.44,-141.96 105.56 2.93 25
5 11/28/2019 19:32:11 -81.44, 116.70 74.00 11/28/2019 19:32:54 -81.44, 116.88 73.96 2.92 43
6 11/28/2019 20:22:51 81.44, -75.60 106.05 11/28/2019 20:22:21 81.43, -75.79 106.01 3.34 30
7 12/01/2019 15:06:34 -81.44,-176.75 73.56 12/01/2019 15:07:12 -81.45,-176.63 73.52 2.10 38
8 12/01/2019 15:57:15 81.44, -9.48 106.45 12/01/2019 15:56:39 81.43, -9.31 106.44 2.93 36
9 12/04/2019 10:40:57 -81.44,-110.21 73.17 12/04/2019 10:41:31 -81.45,-110.21 73.15 1.00 34




NCC Satellite Simultaneous Nadir Overpasses (SNOs) Prediction Service
